Weather History for KYNG - August, 2012

Change the Weather History Date:

Saturday, August 18, 2012

  Actual Average Record
Temperature  
Mean Temperature 64 °F 69 °F  
Max Temperature 76 °F 80 °F 94 °F (1937)
Min Temperature 51 °F 58 °F 41 °F (1981)
Degree Days  
Heating Degree Days 1 1  
Month to date heating degree days 3 13  
Since 1 June heating degree days 44 95  
Since 1 July heating degree days 3 26  
Cooling Degree Days 0 5  
Month to date cooling degree days 89 98  
Year to date cooling degree days 653 432  
Since 1 June cooling degree days 552 393  
Growing Degree Days 14 (Base 50)    
Moisture  
Dew Point 51 °F    
Average Humidity 69    
Maximum Humidity 100    
Minimum Humidity 38    
Precipitation  
Precipitation 0.00 in 0.10 in 0.85 in (1950)
Month to date precipitation 2.80 1.87  
Year to date precipitation 26.76 24.85  
Snow  
Snow 0.00 in 0.00 in - ()
Month to date snowfall 0.0 0.0  
Since 1 June snowfall T 0.0  
Since 1 July snowfall T 0.0  
Snow Depth 0.00 in    
Sea Level Pressure  
Sea Level Pressure 29.97 in    
Wind  
Wind Speed 4 mph (NNE)    
Max Wind Speed 12 mph    
Max Gust Speed 14 mph    
Visibility 10 miles    
Events Fog    
T = Trace of Precipitation, MM = Missing Value Source: NWS Daily Summary

Daily Weather History Graph

Daily Weather History Graph

Search for Another Location

Airport or City:

Trip Planner

Search our weather history database for the weather conditions in past years. The results will help you decide how hot, cold, wet, or windy it might be!

Date:

Astronomy

Aug. 18, 2012 Rise Set
Actual Time 6:35 AM EDT 8:16 PM EDT
Civil Twilight 6:06 AM EDT 8:45 PM EDT
Nautical Twilight 5:30 AM EDT 9:21 PM EDT
Astronomical Twilight 4:52 AM EDT 9:59 PM EDT
Moon 7:43 AM EDT (8/18) 8:30 PM EDT (8/18)
Length of Visible Light 14h 39m
Length of Day
13h 41m
New Moon, 1% of the Moon is Illuminated
Aug 18
New Moon
Aug 24
First Quarter
Aug 31
Full
Sep 8
Last Quarter
Sep 15
New

Hourly Weather History & Observations

Time (EDT) Temp. Dew Point Humidity Pressure Visibility Wind Dir Wind Speed Gust Speed Precip Events Conditions
12:51 AM 55.9 °F 54.0 °F 93% 29.94 in 10.0 mi Calm Calm - N/A   Partly Cloudy
1:51 AM 57.9 °F 54.0 °F 87% 29.95 in 10.0 mi NNW 3.5 mph - N/A   Mostly Cloudy
2:51 AM 59.0 °F 55.0 °F 87% 29.95 in 10.0 mi Calm Calm - N/A   Mostly Cloudy
3:51 AM 55.9 °F 55.0 °F 97% 29.95 in 10.0 mi Calm Calm - N/A   Clear
4:51 AM 55.0 °F 53.1 °F 93% 29.96 in 10.0 mi ENE 3.5 mph - N/A   Clear
5:51 AM 54.0 °F 52.0 °F 93% 29.97 in 10.0 mi ENE 3.5 mph - N/A   Partly Cloudy
6:51 AM 53.6 °F 51.8 °F 94% 29.99 in 10.0 mi Calm Calm - N/A Fog Shallow Fog
7:51 AM 57.9 °F 55.0 °F 90% 29.99 in 10.0 mi Calm Calm - N/A   Scattered Clouds
8:51 AM 64.0 °F 55.9 °F 75% 30.00 in 10.0 mi Calm Calm - N/A   Mostly Cloudy
9:51 AM 66.2 °F 53.6 °F 64% 30.02 in 10.0 mi Calm Calm - N/A   Mostly Cloudy
10:51 AM 68.0 °F 53.1 °F 59% 30.02 in 10.0 mi NNW 4.6 mph - N/A   Mostly Cloudy
11:51 AM 71.1 °F 53.1 °F 53% 30.01 in 10.0 mi Variable 5.8 mph - N/A   Mostly Cloudy
12:51 PM 69.1 °F 51.1 °F 53% 30.00 in 10.0 mi North 6.9 mph - N/A   Mostly Cloudy
1:51 PM 73.0 °F 50.0 °F 44% 29.98 in 10.0 mi Calm Calm - N/A   Scattered Clouds
2:51 PM 75.9 °F 48.9 °F 38% 29.97 in 10.0 mi Calm Calm - N/A   Scattered Clouds
3:51 PM 73.0 °F 46.0 °F 38% 29.96 in 10.0 mi NW 4.6 mph - N/A   Scattered Clouds
4:51 PM 73.9 °F 46.9 °F 38% 29.95 in 10.0 mi North 4.6 mph - N/A   Scattered Clouds
5:51 PM 73.0 °F 46.9 °F 39% 29.94 in 10.0 mi ENE 4.6 mph - N/A   Scattered Clouds
6:51 PM 73.0 °F 48.0 °F 41% 29.94 in 10.0 mi North 6.9 mph - N/A   Scattered Clouds
7:51 PM 68.0 °F 48.9 °F 50% 29.96 in 10.0 mi NNE 11.5 mph - N/A   Scattered Clouds
8:51 PM 63.0 °F 48.9 °F 60% 29.96 in 10.0 mi NE 6.9 mph - N/A   Scattered Clouds
9:51 PM 60.1 °F 46.9 °F 62% 29.98 in 10.0 mi NE 6.9 mph - N/A   Partly Cloudy
10:51 PM 55.0 °F 46.9 °F 74% 29.96 in 10.0 mi ENE 6.9 mph - N/A   Clear
11:51 PM 54.0 °F 46.9 °F 77% 29.97 in 10.0 mi ENE 4.6 mph - N/A   Clear